Flag for U.S.A. Weather past 2 weeks in Aliso Viejo, California, U.S.A.

Now
68 °F

Scattered clouds.


Feels Like: 68 °F
Forecast: 48 / 66 °F
Wind: 5 mph from North

Location: John Wayne Airport-Orange County Airport

Current Time: Dec 19, 2014 at 12:47:14 PM

Latest Report: Dec 19, 2014 at 11:53 AM


Visibility: 10 mi

Pressure: 30.19 "Hg

Humidity: 45%

Dew point: 46 °F

Location of Aliso ViejoLocation

Historic Weather in Aliso Viejo — Graph

°F

Aliso Viejo temperature yesterday

Maximum temperature yesterday: 65 °F (at 11:53 AM)
Minimum temperature yesterday: 52 °F (at 5:53 AM)
Average temperature yesterday: 59 °F

Past Weeks' High & Low Weather Summary

 TemperatureHumidityPressure
High78 °F (Dec 8, 12:53 PM)88% (Dec 12, 6:00 AM)30.24 "Hg (Dec 12, 6:00 AM)
Low50 °F (Dec 14, 5:53 AM)39% (Dec 7, 2:53 PM)29.85 "Hg (Dec 12, 3:53 AM)
Average62 °F68%30.06 "Hg
* Reported Dec 4 11:53 AM — Dec 19 11:53 AM, Aliso Viejo, Weather by CustomWeather, © 2014

Note: Actual official high and low records may vary slightly from our data, if they occured in-between our weather recording intervals... More about our weather records

Advertising

Aliso Viejo weather history for previous 24 hours

 ConditionsComfort  
Time TempWeatherWind HumidityBarometerVisibility
11:53 AM
Dec 19
68 °FScattered clouds.5 mph45%30.19 "Hg10 mi
10:53 AM66 °FScattered clouds.No wind49%30.21 "Hg10 mi
9:53 AM63 °FPassing clouds.No wind54%30.24 "Hg10 mi
8:53 AM59 °FPassing clouds.No wind62%30.23 "Hg10 mi
7:53 AM55 °FScattered clouds.5 mph72%30.22 "Hg10 mi
6:53 AM52 °FScattered clouds.No wind77%30.22 "Hg10 mi
5:53 AM52 °FPassing clouds.No wind77%30.21 "Hg10 mi
4:53 AM52 °FClear.No wind80%30.19 "Hg10 mi
3:53 AM52 °FClear.No wind80%30.19 "Hg10 mi
2:53 AM53 °FClear.No wind80%30.19 "Hg10 mi
1:53 AM54 °FClear.No wind77%30.21 "Hg10 mi
12:53 AM55 °FClear.No wind74%30.20 "Hg10 mi
11:53 PM
Dec 18
55 °FClear.No wind74%30.21 "Hg10 mi
10:53 PM57 °FClear.No wind72%30.21 "Hg10 mi
9:53 PM58 °FClear.3 mph72%30.21 "Hg10 mi
8:53 PM60 °FClear.3 mph69%30.20 "Hg10 mi
7:53 PM60 °FClear.No wind69%30.20 "Hg10 mi
6:53 PM61 °FPassing clouds.No wind67%30.19 "Hg10 mi
5:53 PM62 °FPassing clouds.No wind65%30.18 "Hg10 mi
4:53 PM62 °FOvercast.5 mph62%30.16 "Hg10 mi
3:53 PM64 °FPartly sunny.6 mph56%30.15 "Hg10 mi
2:53 PM64 °FPartly sunny.7 mph56%30.14 "Hg10 mi
1:53 PM64 °FMostly cloudy.5 mph52%30.14 "Hg10 mi
12:53 PM64 °FPartly sunny.5 mph49%30.15 "Hg10 mi
Weather by CustomWeather, © 2014

See weather overviewHow to use our weather pages